Weather History for Storm Lake, IA

Change the Weather History Date:

Saturday, August 30, 2014

  Actual Average Record
Temperature  
Mean Temperature 66 °F -  
Max Temperature 73 °F 79 °F 95 °F (2012)
Min Temperature 59 °F 59 °F 51 °F (2006)
Cooling Degree Days 1    
Growing Degree Days 16 (Base 50)    
Moisture  
Dew Point 66 °F    
Average Humidity 97    
Maximum Humidity 100    
Minimum Humidity 36    
Precipitation  
Precipitation 0.00 in - - ()
Sea Level Pressure  
Sea Level Pressure 29.89 in    
Wind  
Wind Speed 7 mph (West)    
Max Wind Speed 13 mph    
Max Gust Speed 12 mph    
Visibility 6 miles    
Events Fog    
Averages and records for this station are not official NWS values.
T = Trace of Precipitation, MM = Missing Value Source: NWS Daily Summary

Daily Weather History Graph

Daily Weather History Graph

Search for Another Location

Airport:

Trip Planner

Search our weather history database for the weather conditions in past years. The results will help you decide how hot, cold, wet, or windy it might be!

Date:

Astronomy

Aug. 30, 2014 Rise Set
Actual Time 6:43 AM CDT 7:58 PM CDT
Civil Twilight 6:14 AM CDT 8:27 PM CDT
Nautical Twilight 5:39 AM CDT 9:02 PM CDT
Astronomical Twilight 5:02 AM CDT 9:39 PM CDT
Moon 11:39 AM CDT (8/30) 10:25 PM CDT (8/30)
Length of Visible Light 14h 13m
Length of Day
13h 14m
Waxing Crescent, 23% of the Moon is Illuminated
Aug 30
Waxing Crescent
Sep 2
First Quarter
Sep 8
Full
Sep 15
Last Quarter
Sep 24
New

Hourly Weather History & Observations

Time (CDT) Temp. Dew Point Humidity Pressure Visibility Wind Dir Wind Speed Gust Speed Precip Events Conditions
12:15 AM 66.2 °F 66.2 °F 100% 29.82 in 3.0 mi Calm Calm - N/A   Overcast
12:35 AM 66.2 °F 66.2 °F 100% 29.82 in 2.5 mi West 4.6 mph - N/A   Overcast
12:55 AM 66.2 °F 66.2 °F 100% 29.82 in 0.2 mi West 5.8 mph - N/A Fog Fog
1:15 AM 66.2 °F 66.2 °F 100% 29.83 in 2.5 mi West 8.1 mph - N/A   Overcast
1:35 AM 66.2 °F 66.2 °F 100% 29.83 in 2.0 mi West 6.9 mph - N/A   Overcast
1:55 AM 66.2 °F 66.2 °F 100% 29.83 in 1.8 mi WNW 8.1 mph - N/A   Overcast
2:15 AM 64.4 °F 64.4 °F 100% 29.83 in - WNW 10.4 mph - N/A   Overcast
2:35 AM 64.4 °F 64.4 °F 100% 29.83 in 6.0 mi WNW 9.2 mph - N/A   Overcast
2:55 AM 64.4 °F 64.4 °F 100% 29.84 in 4.0 mi WNW 10.4 mph - N/A   Overcast
3:15 AM 64.4 °F 64.4 °F 100% 29.84 in 0.8 mi NW 8.1 mph - N/A   Overcast
3:35 AM 64.4 °F 64.4 °F 100% 29.84 in 0.2 mi WNW 6.9 mph - N/A Fog Fog
3:55 AM 64.4 °F 64.4 °F 100% 29.85 in 0.2 mi WNW 8.1 mph - N/A Fog Fog
4:15 AM 64.4 °F 59.0 °F 83% 29.85 in 0.2 mi NW 5.8 mph - N/A   Haze
4:35 AM 64.4 °F - N/A% 29.85 in 0.2 mi NW 6.9 mph - N/A Fog Fog
4:55 AM 64.4 °F 64.4 °F 100% 29.86 in 0.2 mi WNW 10.4 mph - N/A Fog Fog
5:15 AM 64.4 °F 64.4 °F 100% 29.86 in 0.2 mi WNW 9.2 mph - N/A Fog Fog
5:35 AM 64.4 °F 64.4 °F 100% 29.86 in 0.2 mi WNW 8.1 mph - N/A Fog Fog
5:55 AM 64.4 °F 64.4 °F 100% 29.87 in 0.8 mi WNW 6.9 mph - N/A   Overcast
6:15 AM 62.6 °F 62.6 °F 100% 29.87 in 1.0 mi West 6.9 mph - N/A   Overcast
6:35 AM 64.4 °F 64.4 °F 100% 29.88 in 0.2 mi WNW 6.9 mph - N/A Fog Fog
6:55 AM 64.4 °F 64.4 °F 100% 29.89 in 0.2 mi WNW 4.6 mph - N/A Fog Fog
7:15 AM 64.4 °F 64.4 °F 100% 29.89 in 0.2 mi West 6.9 mph - N/A Fog Fog
7:35 AM 64.4 °F 64.4 °F 100% 29.90 in 0.2 mi WNW 8.1 mph - N/A Fog Fog
7:55 AM 64.4 °F 64.4 °F 100% 29.90 in 0.2 mi West 8.1 mph - N/A Fog Fog
8:15 AM 64.4 °F 64.4 °F 100% 29.91 in 0.2 mi West 9.2 mph - N/A Fog Fog
8:35 AM 64.4 °F 64.4 °F 100% 29.91 in 0.2 mi West 9.2 mph - N/A Fog Fog
8:55 AM 64.4 °F 64.4 °F 100% 29.91 in 1.0 mi WNW 9.2 mph - N/A   Overcast
9:15 AM 66.2 °F 66.2 °F 100% 29.91 in 3.0 mi WNW 8.1 mph - N/A   Overcast
9:55 AM 66.2 °F 66.2 °F 100% 29.92 in 5.0 mi NW 6.9 mph - N/A   Overcast
10:15 AM 66.2 °F 66.2 °F 100% 29.93 in 4.0 mi WNW 8.1 mph - N/A   Overcast
10:35 AM 66.2 °F 66.2 °F 100% 29.93 in 7.0 mi WNW 8.1 mph - N/A   Overcast
10:55 AM 68.0 °F 68.0 °F 100% 29.93 in 9.0 mi NW 10.4 mph - N/A   Overcast
11:15 AM 69.8 °F 69.8 °F 100% 29.93 in 10.0 mi WNW 8.1 mph - N/A   Overcast
11:35 AM 69.8 °F 69.8 °F 100% 29.93 in 10.0 mi WNW 8.1 mph - N/A   Overcast
11:55 AM 71.6 °F 71.6 °F 100% 29.93 in 10.0 mi NW 6.9 mph - N/A   Mostly Cloudy
12:15 PM 69.8 °F 69.8 °F 100% 29.93 in 10.0 mi West 10.4 mph - N/A   Mostly Cloudy
12:35 PM 71.6 °F 71.6 °F 100% 29.93 in 10.0 mi West 9.2 mph - N/A   Scattered Clouds
12:55 PM 71.6 °F 71.6 °F 100% 29.93 in 10.0 mi West 11.5 mph - N/A   Scattered Clouds
1:15 PM 71.6 °F 71.6 °F 100% 29.93 in 10.0 mi West 10.4 mph - N/A   Scattered Clouds
1:35 PM 71.6 °F 71.6 °F 100% 29.93 in 10.0 mi West 12.7 mph - N/A   Scattered Clouds
1:55 PM 69.8 °F 69.8 °F 100% 29.93 in 10.0 mi West 12.7 mph - N/A   Mostly Cloudy
2:15 PM 69.8 °F 69.8 °F 100% 29.93 in 10.0 mi West 9.2 mph - N/A   Overcast
2:55 PM 71.6 °F 69.8 °F 94% 29.92 in 10.0 mi WSW 5.8 mph 11.5 mph N/A   Mostly Cloudy
3:15 PM 71.6 °F 71.6 °F 100% 29.91 in 10.0 mi WSW 6.9 mph - N/A   Clear
3:35 PM 71.6 °F 71.6 °F 100% 29.91 in 10.0 mi SW 8.1 mph - N/A   Clear
3:55 PM 71.6 °F 71.6 °F 100% 29.91 in 10.0 mi Variable 6.9 mph - N/A   Clear
4:15 PM 71.6 °F 71.6 °F 100% 29.90 in 10.0 mi WSW 6.9 mph - N/A   Clear
4:35 PM 71.6 °F 71.6 °F 100% 29.90 in 10.0 mi WSW 6.9 mph - N/A   Clear
4:55 PM 73.4 °F 73.4 °F 100% 29.90 in 10.0 mi WNW 6.9 mph - N/A   Clear
5:15 PM 73.4 °F 71.6 °F 94% 29.89 in 10.0 mi West 5.8 mph - N/A   Clear
5:35 PM 73.4 °F 73.4 °F 100% 29.89 in 10.0 mi WSW 8.1 mph - N/A   Clear
5:55 PM 73.4 °F 73.4 °F 100% 29.88 in 10.0 mi West 8.1 mph - N/A   Clear
6:15 PM 71.6 °F 71.6 °F 100% 29.89 in 10.0 mi West 5.8 mph - N/A   Clear
6:35 PM 71.6 °F 71.6 °F 100% 29.88 in 10.0 mi West 4.6 mph - N/A   Clear
6:55 PM 71.6 °F 71.6 °F 100% 29.88 in 10.0 mi WSW 4.6 mph - N/A   Clear
7:15 PM 69.8 °F 69.8 °F 100% 29.88 in 10.0 mi Calm Calm - N/A   Clear
7:35 PM 69.8 °F 69.8 °F 100% 29.88 in 10.0 mi SW 3.5 mph - N/A   Clear
7:55 PM 68.0 °F 68.0 °F 100% 29.88 in 10.0 mi SSW 4.6 mph - N/A   Clear
8:35 PM 64.4 °F 64.4 °F 100% 29.89 in 10.0 mi South 5.8 mph - N/A   Clear
8:55 PM 64.4 °F 64.4 °F 100% 29.89 in 10.0 mi South 5.8 mph - N/A   Clear
9:15 PM 64.4 °F 64.4 °F 100% 29.89 in 10.0 mi South 6.9 mph - N/A   Clear
9:35 PM 62.6 °F 62.6 °F 100% 29.89 in 10.0 mi SSE 4.6 mph - N/A   Clear
9:55 PM 60.8 °F 60.8 °F 100% 29.89 in 10.0 mi SSE 5.8 mph - N/A   Clear
10:15 PM 60.8 °F 60.8 °F 100% 29.89 in 10.0 mi SSE 5.8 mph - N/A   Clear
10:35 PM 60.8 °F 33.8 °F 36% 29.90 in 10.0 mi SSE 5.8 mph - N/A   Clear
10:55 PM 60.8 °F - N/A% 29.90 in 10.0 mi SSE 6.9 mph - N/A   Clear
11:15 PM 60.8 °F 35.6 °F 39% 29.89 in 10.0 mi SSE 6.9 mph - N/A   Clear
11:35 PM 59.0 °F 35.6 °F 42% 29.88 in 10.0 mi SE 5.8 mph - N/A   Clear
11:55 PM 59.0 °F - N/A% 29.88 in 10.0 mi SE 6.9 mph - N/A   Clear